{"data":{"norad_id":56491,"intl_designator":"2023-064AV","name":"STARLINK-5842","alt_names":[],"object_type":"PAYLOAD","status":"ACTIVE","operator":null,"country":"US","launch_date":"2023-05-10","launch_site_code":"AFWTR","launch_vehicle":null,"mission":null,"orbit_class":"UNKNOWN","rcs_meters":null,"size_class":null,"mass_kg":null,"dimensions":null,"purposes":["comms"],"wikipedia_slug":null,"has_3d_model":false,"image_url":null,"decayed_at":null,"tle_current":{"epoch":"2026-09-20T21:40:45.516576Z","epoch_age_seconds":77150,"freshness":"FRESH","line1":"1 56491U 23064AV  26263.90330459 -.00000014  00000+0  66637-5 0  9990","line2":"2 56491  70.0008 332.2533 0003354 269.6751  90.4024 14.98329020185476","mean_motion":14.9832902,"eccentricity":0.0003354,"inclination_deg":70.0008,"raan_deg":332.2533,"arg_perigee_deg":269.6751,"mean_anomaly_deg":90.4024,"bstar":6.6637e-6,"rev_number":18547,"period_min":96.107061985624,"perigee_km":569.72782580315,"apogee_km":574.3900172273,"semimajor_km":6950.1959215152,"source":"CELESTRAK","updated_at":"2026-09-21T09:00:33.449688Z"}}}